DELTA 1 DEB, 10870

Orbit data source: Space-Track

DELTA 1 DEB, 10870 is space debris in SSO originally from a launch on Thu, 29 Jul 1976 UTC launched from the Air Force Western Test Range (AFWTR). Debris objects in space refer to the collection of defunct objects orbiting the Earth. Examples of debris include non-operational satellites, rocket bodies, and fragments generated from explosions, collisions, or faulty payload assembly.

Loading next visibility...
Identifier
10870, 1976-077CY
Orbit
SSO
Country
Flag of USUS
Related business
Manufacturer
Unknown
Mission
Spacecraft
Bus & Motor
Unknown
Mass
Unknown
Launch date (UTC)
1976-07-29 (50 years ago)
Launch vehicle
Unknown
Launch site
Air Force Western Test Range (AFWTR)
Object type
Payload
Rocket body
Debris
Shape & HBR
Unknown shape, 0.2 m
Radar Cross Section
Small (<0.1 m²)

Expand to show TLE details & history
Last TLE update: 23 hours ago

TLE from 23 hours ago
0 DELTA 1 DEB
1 10870U 76077CY  26062.40864212  .00000214  00000-0  17260-2 0  9991
2 10870 101.7290  46.8036 0015790  27.4627 129.4361 12.48844834250655
Epoch: 2026-03-03T09:48Z
TLE epoch observation values (Epoch: 2026-03-03T09:48:26.679Z)
Latitude
22.47264°
Longitude
-76.59314°
Altitude
1,479.64 km
Speed
7.122 km/s
True Right ascension
15h 26m 49s
True Declination
22° 21' 45"
Sunlit
Object was in daylight at epoch
Visualization orbit readout
Latitude
Unknown
Longitude
Unknown
Altitude
Unknown
Speed
Unknown
Apparent Right ascension
Unknown
Apparent Declination
Unknown
Sunlit
N/A
Visualization observer readout
Local Sidereal Time
12:55:16
Azimuth
Unknown
Elevation
Unknown
Doppler factor
Unknown
Orbital elements
Apogee altitude
1,479.265 km
Perigee altitude
1,454.49 km
Semi-major axis
7,845.015 km
Eccentricity
0.00158
Inclination
101.729°
RAAN
46.8036°
Arg. of periapsis
27.4627°
True anomaly
129.57567°
Mean anomaly
129.4361°
Eccentric anomaly
129.5059°
Mean motion
3.12358 °/min
Orbital period
115.25 mins
BSTAR
0.001726
Loading maneuver chart data...
Computing Atmospheric mass density...
Loading historical data...
Loading historical data...
Loading historical data...
Loading historical data...
Loading historical data...
Loading historical data...
Loading historical data...

Documentation

Showing up to 5 results
|